Other Public Products
Issued by NWS Grand Forks, ND

Home | Current Version | Previous Version | Text Only | Print | Product List | Glossary Off
Versions: 1 2 3 4 5 6 7 8 9 10 11 12 13 14 15 16 17 18 19 20 21 22 23 24 25 26 27 28 29 30 31 32 33 34 35 36 37 38 39 40 41 42 43 44 45 46 47 48 49 50

000
FPUS83 KFGF 020110
OPUFGF
PRAIRIE TO PINES WEATHER ROUNDUP
NATIONAL WEATHER SERVICE EASTERN NORTH DAKOTA/GRAND FORKS ND
800 PM CDT FRI AUG 01 2014

 **SATELLITE DATA USED TO AUGMENT SKY COVER AT AUTOMATED STATIONS**
 *****  WEATHER ACROSS EASTERN NORTH DAKOTA  *****

CITY           SKY/WX    TMP DP  RH WIND       PRES   REMARKS
GRAND FORKS    PTCLDY    79  59  50 E3        30.05S
GRAND FORKS AF PTCLDY    77  64  62 SE5       30.06F
GRAND CITY NWS   N/A     75 N/A N/A SE2         N/A
BUXTON         NOT AVBL
DEVILS LAKE    MOSUNNY   79  59  50 SE6       30.05F
FARGO          PTCLDY    77  58  51 N5        30.06R
WAHPETON ARPT  PTCLDY    77  55  47 NE5       30.06S
$$

 *****  WEATHER ACROSS CENTRAL AND WESTERN NORTH DAKOTA  *****

CITY           SKY/WX    TMP DP  RH WIND       PRES   REMARKS
JAMESTOWN      MOCLDY    76  61  59 E9        30.05F
BISMARCK       TSTM      67  62  84 MISG      30.10R VSB 1/4
MINOT          MOSUNNY   77  63  61 NE5       30.05F
MINOT AFB      MOSUNNY   79  61  54 SE5       30.05F
GARRISON         N/A     79  61  53 NE3       30.05F
WILLISTON      SUNNY     83  54  36 SE7       30.05F
DICKINSON      SUNNY     79  59  50 NE13      30.05F
HETTINGER      SUNNY     83  59  44 NE8       30.03F
$$

 *****  OTHER OBSERVATIONS NORTHEAST NORTH DAKOTA  *****

CITY           SKY/WX    TMP DP  RH WIND       PRES   REMARKS
WALHALLA         N/A     75  64  69 CALM        N/A
LANGDON        FAIR      77  64  65 CALM      30.08F
CAVALIER       FAIR      77  64  65 S5        30.05F
GRAFTON        FAIR      77  63  61 S3        30.05S
CANDO          FAIR      75  64  69 SE3       30.07F
FORT TOTTEN      N/A     75  61  62 E2        29.95S
ROLLA          FAIR      73  61  64 SW3       30.10S
RUGBY          FAIR      73  64  73 E6        30.06F
 ***** THE ABOVE OBSERVATIONS ARE NON NWS ARE NOT QUALITY
        CONTROLLED AND MAY MIS-REPORT RAIN FOR SNOW...
$$

 *****  OTHER OBSERVATIONS SOUTHEAST NORTH DAKOTA *****

CITY           SKY/WX    TMP DP  RH WIND       PRES   REMARKS
COOPERSTOWN    NOT AVBL
VALLEY CITY    FAIR      77  59  53 E8        30.07F
OAKES          NOT AVBL
GWINNER        PTCLDY    79  64  61 E6        30.07F
BUFFALO        NOT AVBL
WYNDMERE       NOT AVBL
 ***** THE ABOVE OBSERVATIONS ARE NON NWS ARE NOT QUALITY
       CONTROLLED AND MAY MIS-REPORT RAIN FOR SNOW...
$$

  *****  WEATHER ACROSS NORTHERN MINNESOTA  *****

CITY           SKY/WX    TMP DP  RH WIND       PRES   REMARKS
FLAG ISLAND    CLEAR     75  52  43 S6        30.04F
WARROAD        CLEAR     73  61  64 SE3       30.06F
ROSEAU         CLEAR     73  63  68 S3        30.06S
HALLOCK        CLEAR     81  59  47 CALM      30.04F
THF RVR FALLS  CLEAR     75  61  60 CALM      30.07S
HALSTAD          N/A     77  61  56 CALM        N/A
FOSSTON        PTCLDY    73  61  64 CALM      30.09R HAZE
BAUDETTE       CLEAR     69  53  56 CALM      30.07F
WASKISH        CLEAR     73  50  43 CALM      30.07S
CROOKSTON      CLEAR     75  66  73 CALM      30.07S
$$
  *****  WEATHER ACROSS CENTRAL AND WEST MINNESOTA  *****

CITY           SKY/WX    TMP DP  RH WIND       PRES   REMARKS
BEMIDJI        PTCLDY    74  57  55 CALM      30.08S
PARK RAPIDS    CLEAR     77  54  44 N8        30.08R
WADENA         CLEAR     72  61  68 N5        30.07S
DETROIT LAKES  PTCLDY    73  61  64 CALM      30.09S
MOORHEAD       PTCLDY    75  66  73 N3        30.07S
FERGUS FALLS   PTCLDY    77  57  50 N5        30.06S
ELBOW LAKE     FAIR      75  60  57 N3        30.06S
MORRIS MN      CLEAR     75  66  73 CALM      30.06S
STAPLES        CLEAR     75  57  53 NW6       30.07S
WHEATON        PTCLDY    75  63  64 CALM      30.07S
$$
  *****  WEATHER ELSEWHERE ACROSS MINNESOTA  *****

CITY           SKY/WX    TMP DP  RH WIND       PRES   REMARKS
DULUTH         PTCLDY    63  53  70 SE8       30.08R
INTRNTL FALLS  CLEAR     71  59  65 CALM      30.06S
ELY            CLEAR     72  50  46 CALM      30.08R
CLOQUET        MOCLDY    66  57  72 CALM      30.08S
BRAINERD       CLEAR     73  62  68 CALM      30.07R
HIBBING        CLEAR     75  57  53 N3        30.07R
ALEXANDRIA     PTCLDY    77  61  57 NW3       30.09R
SAINT CLOUD    PTCLDY    78  63  59 CALM      30.05S
MINNEAPOLIS    MOCLDY    81  57  43 VRB6      30.04S
$$

  *****  WEATHER ACROSS SOUTH DAKOTA  *****

CITY           SKY/WX    TMP DP  RH WIND       PRES   REMARKS
SIOUX FALLS    PTCLDY    76  57  51 SE9       30.08S
BROOKINGS      NOT AVBL
WATERTOWN      CLOUDY    78  58  49 S5        30.08S
HURON          CLEAR     80  57  45 SE6       30.04S
SISSETON         N/A     78  66  66 E5        30.05S
ABERDEEN       CLEAR     77  61  57 E6        30.04F
MITCHELL       CLEAR     78  61  55 SE7       30.06S
PIERRE         PTSUNNY   83  57  41 S22G28    30.01R
MOBRIDGE       SUNNY     83  60  45 SE13      29.97F
RAPID CITY     PTSUNNY   79  49  34 SW7       30.05F
$$

  *****  SOME WEATHER IN NEARBY STATES *****

CITY           SKY/WX    TMP DP  RH WIND       PRES   REMARKS
GLASGOW MT     MOSUNNY   87  55  33 S6        30.03F
GREAT FALLS MT MOSUNNY   89  39  17 NE10      30.10S
CHEYENNE WY    MOSUNNY   73  43  33 S13       30.28F
SCOTTSBLUFF NE MOSUNNY   86  46  24 E8        30.13S
OMAHA NE       PTCLDY    80  61  52 E5        30.06S
DES MOINES IA  PTCLDY    79  58  48 E5        30.06R
DAVENPORT IA   MOCLDY    77  65  66 CALM      30.09R
CHICAGO IL     MOCLDY    72  57  59 SW9       30.09R
EAU CLAIRE WI  CLEAR     76  63  64 E3        30.06R
LA CROSSE WI   PTCLDY    80  61  52 SW3       30.05R
$$

  *****  SOME NATIONAL WEATHER *****

CITY           SKY/WX    TMP DP  RH WIND       PRES   REMARKS
LA GUARDIA NY  CLOUDY    75  61  61 S8        30.19R
RALEIGH NC     DRIZZLE   65  62  90 NE6       30.11R FOG
ATLANTA GA     CLOUDY    75  67  76 SE5       30.05S
NEW ORLEANS LA MOCLDY    82  67  60 SE5       29.96S
OKLAHOMA CITY  MOCLDY    79  64  60 E7        30.05R
ALBUQUERQUE NM PTSUNNY   79  55  43 E17       30.17S
SALT LAKE CITY MOSUNNY   89  43  20 NW10      30.06F
LOS ANGELES CA PTSUNNY   70  63  78 W14       29.88S
BOISE ID       CLOUDY    94  45  18 N6        29.97S HX  90
SEATTLE WA     MOSUNNY   81  53  37 W10       29.97F
$$

*** WEATHER ACROSS MANITOBA...SASKATCHEWAN AND ONTARIO ***
                ***ONTARIO***

CITY           SKY/WX    TMP DP  RH WIND       PRES   REMARKS
GERALDTON      PTCLDY    66  52  59 CALM      30.06S
THUNDER BAY    PTCLDY    66  55  68 S2        30.07R
SIOUX LOOKOUT  PTCLDY    66  57  72 SW3       30.05F
TORONTO        MOCLDY    68  61  77 CALM      30.12S
BIG TROUT LK   CLEAR     64  54  68 SE3       30.00S
PICKLE LAKE    PTCLDY    72  46  40 NE5       30.03R
DRYDEN         CLEAR     75  48  38 SW2       30.06S
KENORA         MOCLDY    73  54  49 SW5       30.07S
$$
                *** MANITOBA***

CITY           SKY/WX    TMP DP  RH WIND       PRES   REMARKS
BRANDON        MOSUNNY   79  63  57 SW6       30.04F
DAUPHIN        MOSUNNY   68  59  73 NE8       30.02F
ISLAND LAKE    CLOUDY    68  59  73 E3        29.96S
PILOT MOUND      N/A     72  64  78 S5          N/A
THE PAS        PTSUNNY   68  63  83 N10       30.05
THOMPSON       PTSUNNY   64  64 100 NE7       30.00S
WINNIPEG       PTCLDY    79  64  61 W2        30.02F
LYNN LAKE      SUNNY     68  50  52 NW13G20   30.09S
CHURCHILL      PTSUNNY   57  52  82 NE15G21   30.04R
GILLAM         LGT RAIN  63  63 100 N9        29.95S
$$
                ***SASKATCHEWAN***

CITY           SKY/WX    TMP DP  RH WIND       PRES   REMARKS
ESTEVAN        MOSUNNY   77  63  61 SE3       30.07F
KINDERSLEY     MOSUNNY   73  61  64 NE8       30.16S
LLOYDMINSTER   PTSUNNY   68  57  68 NE7       30.21S
PRINCE ALBERT  MOSUNNY   72  59  64 NE12      30.12S
REGINA         TSTM      61  57  88 NW18G32   30.12R
YORKTON        TSTM      64  61  88 NW18G35   30.12R FOG


USA.gov is the U.S. government's official web portal to all federal, state and local government web resources and services.